Location: Aniagüita
(10.0946°N, 66.9708°W)
Time: 15:49:30
(UTC+00:00)

Cosmos 1378 Rocket - Pass Details

Date: 30 June 2022
Orbit: 600 x 627 km, 82.5° (Epoch: 06 August)

Event Time Altitude Azimuth Distance (km) Brightness Sun altitude
Rises 23:43:59 0° 180° (S) 2,904 6.7 -12.2°
Reaches altitude 10° 23:46:14 10° 177° (S) 1,997 5.9 -12.7°
Maximum altitude 23:50:38 71° 93° (E) 661 3.5 -13.7°
Drops below altitude 10° 23:55:01 10° 10° (N) 1,988 6.4 -14.7°
Sets 23:57:15 0° 8° (N) 2,890 7.3 -15.1°
